Погода в Лорето

Мексика     22°16′14″N   101°59′09″W
темп.,
°C
ветер,
м/с
пор.,
м/с
влажн.,
%
обл.,
%
осадки,
мм/ч
давл.,
гПа
погр.,
м
17 января, вс
вс1700:00+11зсз465268 0.0 1018117
03:00+9з236488 0.0 101724
06:00+6юз127951 0.0 101722
09:00+12ссв114960 0.0 102048
12:00+18с661740 0.0 10181553
15:00+20ссз34130 0.0 10132139
18:00+17с22160 0.0 101424
21:00+12св45190 0.0 101867
18 января, пн
пн1800:00+9св34250 0.0 102029
03:00+7с23280 0.0 101922
06:00+6св23350 0.0 102022
09:00+10юв11470 0.0 102190
12:00+18ююз44210 0.0 10171059
15:00+21юз66170 0.0 10122034
18:00+18ююз452222 0.0 1011112
21:00+13ююз34304 0.0 101529
19 января, вт
вт1900:00+10ю014148 0.0 101723
03:00+9ю235033 0.0 101822
06:00+8ююв238436 0.0 101822
09:00+12ююв226697 0.0 1020144
12:00+18ююз343792 0.0 10171158
15:00+21ююз5532100 0.0 10142155
18:00+19юз3336100 0.0 101397
21:00+16в5753100 0.0 1017266
20 января, ср
ср2000:00+14в5861100 0.1 1019298
03:00+12в81375100 0.0 1020376
06:00+12вюв61077100 0.1 1021586
09:00+13вюв81172100 0.0 1023569
12:00+18вюв91048100 0.0 1021914
15:00+19вюв91146100 0.0 10161322
18:00+17вюв8956100 0.0 1016857
21:00+14вюв8127298 0.0 1019417
21 января, чт
чт2100:00+12вюв6118399 0.0 1020340
03:00+12юв3683100 0.1 1020343
06:00+10юз0193100 0.3 102022
09:00+13юв1279100 0.1 1022153
12:00+19ююз6947100 0.1 10181608
15:00+19ююз7743100 0.0 10141600
18:00+18юз5746100 0.0 1014737
21:00+15зюз3352100 0.0 101743